[[{"header":{"parameterUnit":"m.s-1","parameterCategory":2,"la1":30.2991,"la2":30.254,"lo1":-89.0895,"lo2":-89.0444,"dy":0.0017,"dx":0.0017,"nx":28,"ny":28,"refTime":"2024-05-26T09:00:00:Z","depth":"0","parameterNumber":2,"parameterNumberName":"U-component_of_CURRENTS"},"data":[0,0,0,0,0,0,0,0,0,0,0,0,0,0,0,0,0,0,0,0,0,0,0,0,0,0,0,0,0,0,0,0,0,0,0,0,0,0,0,0,0,0,0,0,0,0,0,0,0,0,0,0,0,0,0,0,0,0,-0.2321,-0.2321,0,-0.2344,-0.2344,-0.2344,-0.2304,-0.2303,-0.2302,-0.2301,-0.2228,-0.2227,-0.2226,0,0,0,0,0,0,0,0,0,0,0,0,0,-0.2252,-0.2253,-0.2321,-0.2321,-0.2322,-0.2344,-0.2344,-0.2344,-0.2304,-0.2303,-0.2301,-0.23,-0.2228,-0.2227,-0.2226,0,0,0,0,0,0,0,0,0,0,0,0,0,-0.2276,-0.2254,-0.2321,-0.2307,-0.2306,-0.2344,-0.2344,-0.2344,-0.2304,-0.2303,-0.2301,-0.23,-0.2229,-0.2227,-0.2226,-0.2249,0,0,-0.2222,-0.2221,0,0,0,0,0,0,0,0,-0.2275,-0.2278,-0.2308,-0.2308,-0.2307,-0.2322,-0.2293,-0.2308,-0.2305,-0.2302,-0.2301,-0.2299,-0.2254,-0.225,-0.2255,-0.2246,-0.2243,-0.2221,-0.2221,-0.222,-0.222,0,0,0,0,0,0,0,-0.2273,-0.2277,-0.2327,-0.2309,-0.2309,-0.2303,-0.2304,-0.2296,-0.2282,-0.2302,-0.23,-0.2308,-0.2252,-0.2257,-0.2253,-0.2241,-0.2221,-0.222,-0.2219,-0.2219,-0.2231,-0.2232,0,0,0,0,0,0,-0.2278,-0.2276,-0.2326,-0.2328,-0.229,-0.2306,-0.2307,-0.2316,-0.2284,-0.228,-0.2309,-0.2306,-0.226,-0.2255,-0.225,-0.2264,-0.222,-0.2219,-0.2218,-0.223,-0.2231,-0.2233,0,0,0,0,0,0,-0.2277,-0.2283,-0.2325,-0.2304,-0.231,-0.2309,-0.232,-0.2318,-0.2314,-0.2292,-0.2284,-0.2307,-0.2258,-0.2252,-0.2244,-0.2261,-0.2218,-0.2217,-0.2229,-0.223,-0.2232,-0.2299,0,0,0,0,0,0,-0.2275,-0.2282,-0.2286,-0.2305,-0.2311,-0.235,-0.2321,-0.2319,-0.2324,-0.2319,-0.2287,-0.2279,-0.2257,-0.2246,-0.2243,-0.2258,-0.2216,-0.2227,-0.2229,-0.2232,-0.2296,-0.2303,-0.231,0,0,0,0,0,-0.2272,-0.2284,-0.2287,-0.2293,-0.2319,-0.2351,-0.2354,-0.2345,-0.2325,-0.2333,-0.231,-0.228,-0.2257,-0.2246,-0.2242,-0.2257,-0.2226,-0.2229,-0.2231,-0.2292,-0.2302,-0.2309,0,0,0,0,0,0,-0.225,-0.2283,-0.2285,-0.2304,-0.2329,-0.2345,-0.2353,-0.2349,-0.234,-0.2329,-0.2296,-0.2288,-0.2288,-0.2267,-0.2256,-0.2268,-0.2237,-0.2239,-0.2285,-0.2293,-0.23,-0.2304,-0.2214,0,0,0,0,0,-0.2253,-0.2271,-0.2302,-0.2317,-0.2333,-0.2344,-0.2353,-0.2353,-0.2352,-0.2346,-0.2327,-0.2307,-0.23,-0.229,-0.2281,-0.2288,-0.2247,-0.2295,-0.2302,-0.2308,-0.231,-0.2278,-0.2282,-0.2241,-0.2241,-0.2241,0,0,-0.2247,-0.2269,-0.2276,-0.2314,-0.233,-0.2375,-0.2344,-0.2366,-0.2389,-0.234,-0.2353,-0.2331,-0.2308,-0.2318,-0.2316,-0.2298,-0.2295,-0.2312,-0.2317,-0.2315,-0.2281,-0.2285,-0.2288,-0.2243,-0.2243,-0.2243,0,0,-0.2274,-0.2269,-0.231,-0.2339,-0.2377,-0.2385,-0.2394,-0.2416,-0.2407,-0.2429,-0.2395,-0.2383,-0.238,-0.2363,-0.2355,-0.2395,-0.2336,-0.2393,-0.2429,-0.2399,-0.2401,-0.2403,-0.234,-0.2335,-0.2394,-0.2395,-0.2395,0,-0.2267,-0.2315,-0.2325,-0.2385,-0.2397,-0.2396,-0.2439,-0.2451,-0.2463,-0.2448,-0.2441,-0.2424,-0.2405,-0.2402,-0.242,-0.241,-0.2371,-0.2398,-0.2406,-0.2408,-0.2408,-0.2343,-0.2337,-0.2398,-0.2398,-0.2397,-0.2397,0,-0.2346,-0.2375,-0.2399,-0.2467,-0.249,-0.2514,-0.2539,-0.2545,-0.253,-0.2531,-0.2521,-0.2501,-0.2479,-0.2483,-0.2468,-0.2465,-0.2427,-0.242,-0.2383,-0.2416,-0.2345,-0.2338,-0.2403,-0.2402,-0.2401,-0.24,0,0,-0.2317,-0.2432,-0.2431,-0.2457,-0.2518,-0.2531,-0.2576,-0.2587,-0.2581,-0.2598,-0.2583,-0.259,-0.2555,-0.2544,-0.2515,-0.2502,-0.2474,-0.247,-0.2467,-0.2403,-0.238,-0.2267,-0.2248,-0.2468,-0.2468,-0.2468,-0.2322,0,-0.2356,-0.2458,-0.2506,-0.256,-0.2592,-0.2603,-0.2632,-0.2643,-0.2635,-0.2625,-0.2603,-0.259,-0.2585,-0.2563,-0.2554,-0.2494,-0.2462,-0.2513,-0.2361,-0.2356,-0.2249,-0.2239,-0.2126,-0.1979,-0.2314,-0.2313,-0.2312,0,-0.2392,-0.2447,-0.252,-0.2562,-0.2575,-0.261,-0.2596,-0.2629,-0.2632,-0.2626,-0.262,-0.2601,-0.2583,-0.2575,-0.2495,-0.2526,-0.2458,-0.2417,-0.241,-0.2276,-0.2231,-0.2004,-0.1953,-0.1955,-0.2301,-0.2302,-0.2302,0,-0.2315,-0.2423,-0.246,-0.2486,-0.2566,-0.257,-0.2591,-0.2608,-0.2616,-0.2615,-0.2614,-0.2593,-0.2559,-0.2513,-0.2429,-0.246,-0.2321,-0.2345,-0.2173,-0.2163,-0.2021,-0.1999,-0.1949,-0.2276,-0.2277,-0.2277,-0.2278,0,-0.2294,-0.2309,-0.2423,-0.2439,-0.2452,-0.2516,-0.2519,-0.2539,-0.257,-0.2553,-0.2594,-0.2555,-0.2546,-0.247,-0.2411,-0.2248,-0.2294,-0.2163,-0.2119,-0.2039,-0.2021,-0.1979,-0.2019,-0.2272,-0.2273,-0.2274,-0.2275,0,-0.2184,-0.2276,-0.231,-0.2396,-0.242,-0.2415,-0.2492,-0.2503,-0.2534,-0.2515,-0.2517,-0.2516,-0.2403,-0.2361,-0.2246,-0.2187,-0.202,-0.1994,-0.1884,-0.1829,-0.1692,-0.1739,-0.1635,-0.1592,-0.1794,-0.1791,-0.1788,0,-0.2136,-0.2149,-0.2251,-0.2285,-0.2321,-0.2354,-0.239,-0.2462,-0.2475,-0.2455,-0.243,-0.235,-0.2224,-0.2034,-0.193,-0.178,-0.1832,-0.1607,-0.1657,-0.165,-0.1672,-0.1738,-0.1716,-0.1488,-0.1483,-0.1478,-0.1475,0,-0.2018,-0.2057,-0.2109,-0.2164,-0.2214,-0.2245,-0.2287,-0.2287,-0.233,-0.2308,-0.2185,-0.2081,-0.1926,-0.1711,-0.1563,-0.148,-0.1582,-0.1512,-0.154,-0.1449,-0.1483,-0.1429,-0.1611,-0.1436,-0.144,-0.1443,-0.1445,-0.1447,-0.1913,-0.1919,-0.1986,-0.2021,-0.207,-0.2033,-0.1962,-0.1995,-0.1925,-0.1757,-0.1862,-0.1611,-0.1553,-0.1317,-0.1249,-0.1147,-0.1259,-0.1125,-0.1184,-0.1254,-0.1215,-0.1295,-0.1057,-0.1059,-0.106,-0.1061,-0.1062,0,-0.1755,-0.179,-0.1835,-0.1815,-0.1747,-0.1847,-0.1815,-0.169,-0.1484,-0.1396,-0.1254,-0.1097,-0.0957,-0.0939,-0.0896,-0.085,-0.0885,-0.0859,-0.0956,-0.095,-0.1023,-0.1013,-0.0712,-0.0712,-0.0712,-0.0713,-0.0713,-0.0713,-0.1682,-0.1663,-0.169,-0.1488,-0.1456,-0.1274,-0.1201,-0.1054,-0.0938,-0.0652,-0.0494,-0.0458,-0.0614,-0.0793,-0.0791,-0.0754,-0.0808,-0.076,-0.0839,-0.0932,-0.0964,-0.0995,-0.0996,-0.0696,-0.0696,-0.0718,-0.0718,-0.0718]},{"header":{"parameterUnit":"m.s-1","parameterCategory":2,"la1":30.2991,"la2":30.254,"lo1":-89.0895,"lo2":-89.0444,"dy":0.0017,"dx":0.0017,"nx":28,"ny":28,"refTime":"2024-05-26T09:00:00:Z","depth":"0","parameterNumber":3,"parameterNumberName":"V-component_of_CURRENTS"},"data":[0,0,0,0,0,0,0,0,0,0,0,0,0,0,0,0,0,0,0,0,0,0,0,0,0,0,0,0,0,0,0,0,0,0,0,0,0,0,0,0,0,0,0,0,0,0,0,0,0,0,0,0,0,0,0,0,0,0,-0.0223,-0.0222,0,-0.0149,-0.0148,-0.0147,-0.0085,-0.0084,-0.0084,-0.0083,0.0026,0.0029,0.0031,0,0,0,0,0,0,0,0,0,0,0,0,0,-0.0265,-0.0265,-0.0223,-0.0222,-0.0221,-0.0149,-0.0148,-0.0147,-0.0085,-0.0084,-0.0084,-0.0083,0.0025,0.0028,0.0031,0,0,0,0,0,0,0,0,0,0,0,0,0,-0.0224,-0.0265,-0.0223,-0.0182,-0.0178,-0.0149,-0.0148,-0.0146,-0.0085,-0.0084,-0.0084,-0.0083,0.0025,0.0028,0.0031,0.0035,0,0,0.0042,0.0044,0,0,0,0,0,0,0,0,-0.0227,-0.0223,-0.0189,-0.0185,-0.018,-0.0126,-0.0122,-0.0084,-0.0086,-0.012,-0.0083,-0.0082,-0.0022,-0.0015,-0.0003,0.004,0.0045,0.0043,0.0045,0.0046,0.0047,0,0,0,0,0,0,0,-0.023,-0.0225,-0.0193,-0.0188,-0.0183,-0.0152,-0.0145,-0.0115,-0.0076,-0.0117,-0.0112,-0.0105,-0.0019,-0.0006,0.0,0.0047,0.0042,0.0046,0.0048,0.0049,0.0118,0.0117,0,0,0,0,0,0,-0.0244,-0.0228,-0.0195,-0.0191,-0.0202,-0.0152,-0.0145,-0.0143,-0.0077,-0.0066,-0.0106,-0.0103,-0.0013,-0.0004,0.0005,0.0022,0.0046,0.0049,0.0052,0.0118,0.0118,0.0117,0,0,0,0,0,0,-0.0245,-0.0242,-0.0198,-0.0208,-0.02,-0.0153,-0.0151,-0.0143,-0.0128,-0.0069,-0.0058,-0.0101,-0.0012,-0.0,0.0033,0.0026,0.0051,0.0054,0.0118,0.0118,0.0117,0.0051,0,0,0,0,0,0,-0.0247,-0.0243,-0.025,-0.0209,-0.02,-0.0191,-0.0152,-0.0142,-0.0126,-0.012,-0.0061,-0.005,-0.001,0.0027,0.0036,0.0032,0.0057,0.0119,0.0118,0.0118,0.0053,0.0048,0.0044,0,0,0,0,0,-0.0249,-0.0267,-0.025,-0.0246,-0.021,-0.0192,-0.0186,-0.0147,-0.0127,-0.013,-0.0083,-0.0052,0.003,0.003,0.004,0.0037,0.0119,0.0118,0.0118,0.0055,0.0049,0.0044,0,0,0,0,0,0,-0.0291,-0.0261,-0.0242,-0.0251,-0.0227,-0.0182,-0.0183,-0.0155,-0.0121,-0.0115,-0.0055,-0.0041,-0.0017,0.0018,0.0016,0.0055,0.0079,0.0081,0.0028,0.0023,0.0018,0.0016,0.006,0,0,0,0,0,-0.0305,-0.0309,-0.0272,-0.028,-0.0271,-0.0228,-0.0216,-0.0191,-0.0155,-0.0139,-0.0096,-0.0049,-0.0012,0.0011,0.0045,0.0066,0.0126,0.0071,0.0066,0.0062,0.0067,0.015,0.0154,0.0115,0.0115,0.0115,0,0,-0.0322,-0.0308,-0.0309,-0.0289,-0.0267,-0.0266,-0.0219,-0.021,-0.0202,-0.0133,-0.0112,-0.0069,-0.0012,0.0013,0.0027,0.0043,0.0104,0.0061,0.0057,0.0065,0.015,0.0154,0.0158,0.0115,0.0115,0.0115,0,0,-0.0373,-0.0349,-0.0374,-0.0358,-0.0335,-0.0301,-0.0302,-0.0262,-0.0236,-0.0215,-0.0159,-0.0115,-0.0069,-0.0018,0.0012,0.0001,0.007,0.0004,-0.0015,0.0065,0.0069,0.0073,0.0152,0.0164,0.0007,0.0007,0.0007,0,-0.0398,-0.0414,-0.0378,-0.0398,-0.0382,-0.0322,-0.0335,-0.0306,-0.0259,-0.0227,-0.022,-0.012,-0.0081,-0.0019,-0.0027,-0.0009,0.0048,0.0001,0.0059,0.0065,0.0071,0.0151,0.0165,0.0004,0.0004,0.0005,0.0005,0,-0.0469,-0.0473,-0.0485,-0.048,-0.0463,-0.0462,-0.0413,-0.0387,-0.0346,-0.0303,-0.0242,-0.018,-0.011,-0.0099,-0.0069,-0.0008,0.0023,0.0039,0.0074,0.0071,0.0155,0.0171,-0.0001,0.0,0.0001,0.0002,0,0,-0.0535,-0.0534,-0.0535,-0.0531,-0.0499,-0.0485,-0.0467,-0.0414,-0.038,-0.0333,-0.0277,-0.0221,-0.0167,-0.013,-0.0076,-0.0013,0.0067,0.0022,0.0028,0.01,0.025,0.0275,0.0296,0.0095,0.0097,0.0099,0.0292,0,-0.0593,-0.0639,-0.0613,-0.0624,-0.0631,-0.0559,-0.0537,-0.0481,-0.042,-0.0354,-0.0266,-0.0204,-0.0183,-0.0143,-0.0079,0.0038,0.0106,0.0013,0.0243,0.025,0.0273,0.0314,0.0346,0.0521,0.0308,0.0311,0.0313,0,-0.0666,-0.0677,-0.0712,-0.0669,-0.0662,-0.0655,-0.0572,-0.0546,-0.0439,-0.0389,-0.0305,-0.0229,-0.012,-0.0111,0.0088,0.003,0.0129,0.0212,0.0222,0.0283,0.0306,0.0491,0.0559,0.068,0.0338,0.0336,0.0335,0,-0.0724,-0.0732,-0.0752,-0.0746,-0.0704,-0.0684,-0.0645,-0.0558,-0.0507,-0.0401,-0.0338,-0.0215,-0.0117,0.0006,0.017,0.0138,0.0396,0.038,0.0501,0.0504,0.0596,0.0603,0.081,0.0519,0.0519,0.0518,0.0518,0,-0.0786,-0.0794,-0.078,-0.079,-0.0784,-0.0733,-0.0695,-0.064,-0.0535,-0.0437,-0.0356,-0.0238,-0.0081,0.0085,0.0196,0.0413,0.0427,0.0518,0.0563,0.0572,0.0574,0.0734,0.0756,0.0526,0.0524,0.0523,0.0521,0,-0.0845,-0.0842,-0.0858,-0.0829,-0.0819,-0.0813,-0.0734,-0.0674,-0.0592,-0.0456,-0.0414,-0.0222,-0.0004,0.0153,0.0392,0.0476,0.0739,0.0722,0.0717,0.0757,0.0941,0.0956,0.1189,0.1288,0.0883,0.0885,0.0886,0,-0.088,-0.0901,-0.09,-0.0897,-0.0884,-0.0861,-0.081,-0.072,-0.0621,-0.0418,-0.0315,-0.0106,0.0094,0.0423,0.0595,0.0806,0.0872,0.095,0.0882,0.098,0.1032,0.1023,0.109,0.0988,0.099,0.0992,0.0993,0,-0.0931,-0.0934,-0.095,-0.094,-0.0906,-0.0836,-0.0743,-0.0676,-0.0504,-0.0364,-0.0102,0.0051,0.0328,0.0592,0.0811,0.0922,0.1032,0.0993,0.1117,0.1153,0.114,0.1247,0.0826,0.101,0.1008,0.1007,0.1006,0.1005,-0.096,-0.0985,-0.0984,-0.0952,-0.0888,-0.0728,-0.065,-0.0487,-0.0291,0.0014,0.0104,0.0415,0.059,0.0903,0.1029,0.1254,0.12,0.1317,0.1338,0.133,0.1394,0.0997,0.1204,0.1203,0.1203,0.1203,0.1202,0,-0.097,-0.0973,-0.0968,-0.088,-0.0737,-0.0713,-0.052,-0.0386,-0.01,0.0187,0.0448,0.0825,0.1065,0.1227,0.1458,0.1593,0.1617,0.166,0.1674,0.1735,0.1428,0.1399,0.1629,0.1629,0.1629,0.1629,0.1629,0.1629,-0.0972,-0.0966,-0.0938,-0.0709,-0.0623,-0.0408,-0.028,-0.0081,0.0139,0.0595,0.093,0.1139,0.1335,0.1619,0.1871,0.19,0.2039,0.2,0.2096,0.1879,0.1848,0.1819,0.1801,0.2112,0.2112,0.241,0.2413,0.2415]}],[{"header":{"parameterUnit":"m.s-1","parameterCategory":2,"la1":30.2991,"la2":30.254,"lo1":-89.0895,"lo2":-89.0444,"dy":0.0017,"dx":0.0017,"nx":28,"ny":28,"refTime":"2024-05-26T09:00:00:Z","depth":"2","parameterNumber":2,"parameterNumberName":"U-component_of_CURRENTS"},"data":[0,0,0,0,0,0,0,0,0,0,0,0,0,0,0,0,0,0,0,0,0,0,0,0,0,0,0,0,0,0,0,0,0,0,0,0,0,0,0,0,0,0,0,0,0,0,0,0,0,0,0,0,0,0,0,0,0,0,-0.224,-0.2241,0,-0.2266,-0.2267,-0.2267,-0.2236,-0.2235,-0.2234,-0.2233,-0.2179,-0.2178,-0.2177,0,0,0,0,0,0,0,0,0,0,0,0,0,-0.2176,-0.2177,-0.224,-0.2241,-0.2241,-0.2266,-0.2267,-0.2267,-0.2236,-0.2235,-0.2234,-0.2233,-0.2179,-0.2178,-0.2177,0,0,0,0,0,0,0,0,0,0,0,0,0,-0.2201,-0.2177,-0.224,-0.2231,-0.223,-0.2266,-0.2267,-0.2267,-0.2236,-0.2235,-0.2233,-0.2232,-0.2179,-0.2178,-0.2177,-0.2199,0,0,-0.2175,-0.2174,0,0,0,0,0,0,0,0,-0.2199,-0.2203,-0.2232,-0.2232,-0.2231,-0.2249,-0.2224,-0.2241,-0.2236,-0.2231,-0.2233,-0.2231,-0.2197,-0.2195,-0.22,-0.2197,-0.2194,-0.2175,-0.2174,-0.2174,-0.2173,0,0,0,0,0,0,0,-0.2198,-0.2202,-0.2248,-0.2232,-0.2232,-0.223,-0.2232,-0.2227,-0.2218,-0.2232,-0.223,-0.2238,-0.2196,-0.2201,-0.2199,-0.2194,-0.2175,-0.2174,-0.2173,-0.2173,-0.2196,-0.2198,0,0,0,0,0,0,-0.2201,-0.22,-0.2247,-0.2249,-0.2215,-0.2232,-0.2234,-0.2242,-0.222,-0.2217,-0.2239,-0.2236,-0.2203,-0.22,-0.2196,-0.2217,-0.2174,-0.2173,-0.2172,-0.2195,-0.2197,-0.2198,0,0,0,0,0,0,-0.2199,-0.2205,-0.2246,-0.2227,-0.2232,-0.2235,-0.2245,-0.2244,-0.2244,-0.2227,-0.2221,-0.224,-0.2202,-0.2198,-0.2196,-0.2214,-0.2172,-0.2172,-0.2194,-0.2196,-0.2197,-0.226,0,0,0,0,0,0,-0.2198,-0.2204,-0.2209,-0.2227,-0.2234,-0.227,-0.2246,-0.2245,-0.2253,-0.2249,-0.2226,-0.222,-0.2201,-0.2197,-0.2195,-0.2212,-0.2171,-0.2192,-0.2195,-0.2197,-0.2257,-0.2264,-0.227,0,0,0,0,0,-0.2195,-0.2208,-0.2209,-0.2215,-0.2241,-0.2271,-0.2274,-0.2269,-0.2254,-0.2263,-0.2247,-0.2221,-0.2209,-0.2198,-0.2195,-0.2212,-0.2191,-0.2194,-0.2197,-0.2254,-0.2263,-0.227,0,0,0,0,0,0,-0.2179,-0.2208,-0.2209,-0.2228,-0.225,-0.2267,-0.2276,-0.2274,-0.2271,-0.2263,-0.2236,-0.223,-0.2236,-0.2219,-0.2207,-0.2226,-0.2196,-0.2198,-0.2241,-0.2249,-0.2255,-0.2258,-0.217,0,0,0,0,0,-0.2182,-0.2198,-0.2226,-0.224,-0.2255,-0.2266,-0.2276,-0.2278,-0.2281,-0.2278,-0.2264,-0.2251,-0.2248,-0.2242,-0.2237,-0.2248,-0.2211,-0.2258,-0.2264,-0.227,-0.2271,-0.2242,-0.2245,-0.2206,-0.2206,-0.2206,0,0,-0.2178,-0.2197,-0.2205,-0.2239,-0.2253,-0.2286,-0.2268,-0.2291,-0.2312,-0.2273,-0.2288,-0.2274,-0.2257,-0.227,-0.2271,-0.2255,-0.226,-0.2273,-0.2278,-0.2276,-0.2245,-0.2248,-0.2251,-0.2208,-0.2208,-0.2208,0,0,-0.2195,-0.2201,-0.2228,-0.2251,-0.2284,-0.2296,-0.2305,-0.2328,-0.2331,-0.2354,-0.2328,-0.2325,-0.2325,-0.2315,-0.231,-0.2351,-0.2298,-0.2351,-0.2385,-0.2357,-0.2359,-0.2361,-0.2309,-0.2305,-0.2353,-0.2353,-0.2353,0,-0.219,-0.2225,-0.224,-0.2277,-0.2295,-0.2304,-0.2337,-0.2354,-0.2371,-0.2373,-0.2365,-0.2362,-0.2348,-0.2355,-0.2373,-0.2366,-0.2331,-0.2355,-0.2364,-0.2366,-0.2366,-0.2312,-0.2307,-0.2356,-0.2356,-0.2355,-0.2355,0,-0.2237,-0.226,-0.2279,-0.2326,-0.235,-0.2376,-0.2407,-0.2423,-0.2427,-0.2435,-0.2444,-0.2431,-0.242,-0.2426,-0.2416,-0.242,-0.2386,-0.2376,-0.2342,-0.2374,-0.2315,-0.2309,-0.2361,-0.236,-0.2359,-0.2358,0,0,-0.2222,-0.2297,-0.2299,-0.232,-0.2372,-0.2391,-0.2436,-0.2467,-0.2474,-0.2496,-0.2499,-0.2514,-0.2491,-0.2485,-0.2466,-0.2455,-0.2433,-0.2425,-0.2422,-0.2368,-0.235,-0.2242,-0.2224,-0.2423,-0.2423,-0.2423,-0.2302,0,-0.2246,-0.2312,-0.2349,-0.2393,-0.242,-0.2447,-0.248,-0.2507,-0.2519,-0.2524,-0.2521,-0.2517,-0.2518,-0.2504,-0.2498,-0.2449,-0.2422,-0.2465,-0.233,-0.2326,-0.2223,-0.2216,-0.2067,-0.1939,-0.2295,-0.2294,-0.2294,0,-0.2266,-0.2307,-0.236,-0.2407,-0.2422,-0.2452,-0.248,-0.2513,-0.2533,-0.2541,-0.2545,-0.2532,-0.2524,-0.2515,-0.2452,-0.2477,-0.2419,-0.2383,-0.2377,-0.225,-0.2207,-0.1967,-0.1914,-0.2283,-0.2284,-0.2285,-0.2285,0,-0.2218,-0.2298,-0.2332,-0.2353,-0.2422,-0.2441,-0.2472,-0.2505,-0.2523,-0.2538,-0.2537,-0.2531,-0.2504,-0.2464,-0.2396,-0.2421,-0.2303,-0.232,-0.2165,-0.2155,-0.1986,-0.1963,-0.2262,-0.2262,-0.2262,-0.2262,-0.2263,0,-0.2206,-0.2224,-0.2309,-0.2324,-0.235,-0.2409,-0.2429,-0.246,-0.2495,-0.2493,-0.2526,-0.2501,-0.2492,-0.2429,-0.2379,-0.2236,-0.228,-0.2157,-0.2116,-0.2003,-0.1983,-0.2256,-0.2257,-0.2258,-0.2259,-0.226,-0.226,0,-0.2123,-0.2193,-0.2223,-0.2303,-0.2325,-0.2333,-0.2403,-0.2419,-0.2458,-0.2454,-0.2458,-0.2464,-0.2373,-0.2332,-0.2237,-0.2182,-0.2079,-0.2012,-0.1867,-0.1812,-0.1956,-0.1962,-0.1836,-0.1831,-0.1827,-0.1824,-0.1821,0,-0.2083,-0.2092,-0.2177,-0.2203,-0.2236,-0.2273,-0.2303,-0.2379,-0.2396,-0.2409,-0.2393,-0.233,-0.2231,-0.2057,-0.1951,-0.1811,-0.1918,-0.1612,-0.1642,-0.1938,-0.1912,-0.1924,-0.1935,-0.1438,-0.1432,-0.1428,-0.1424,0,-0.1984,-0.2015,-0.2052,-0.2095,-0.2137,-0.2188,-0.2234,-0.2246,-0.2312,-0.2289,-0.2215,-0.2132,-0.1968,-0.1742,-0.159,-0.1509,-0.1633,-0.151,-0.1833,-0.1577,-0.1555,-0.1533,-0.1558,-0.1382,-0.1386,-0.1389,-0.1391,-0.1393,-0.1891,-0.1883,-0.193,-0.1943,-0.2034,-0.2074,-0.2037,-0.2086,-0.2062,-0.1991,-0.2003,-0.18,-0.1716,-0.1377,-0.1263,-0.1183,-0.1305,-0.1261,-0.1279,-0.1301,-0.1285,-0.1258,-0.1024,-0.1026,-0.1028,-0.1029,-0.1031,0,-0.1733,-0.174,-0.1768,-0.1806,-0.183,-0.1929,-0.1961,-0.1881,-0.1778,-0.177,-0.1653,-0.1343,-0.1164,-0.1088,-0.0882,-0.0832,-0.0867,-0.081,-0.0866,-0.0906,-0.0941,-0.0912,-0.0549,-0.0548,-0.0547,-0.0546,0,0,-0.1655,-0.1598,-0.159,-0.1551,-0.161,-0.159,-0.1566,-0.1477,-0.1428,-0.1268,-0.1145,-0.1177,-0.1087,-0.0847,-0.0768,-0.0635,-0.0789,-0.0603,-0.0985,-0.1096,-0.1132,-0.1184,-0.118,0,0,0,0,0]},{"header":{"parameterUnit":"m.s-1","parameterCategory":2,"la1":30.2991,"la2":30.254,"lo1":-89.0895,"lo2":-89.0444,"dy":0.0017,"dx":0.0017,"nx":28,"ny":28,"refTime":"2024-05-26T09:00:00:Z","depth":"2","parameterNumber":3,"parameterNumberName":"V-component_of_CURRENTS"},"data":[0,0,0,0,0,0,0,0,0,0,0,0,0,0,0,0,0,0,0,0,0,0,0,0,0,0,0,0,0,0,0,0,0,0,0,0,0,0,0,0,0,0,0,0,0,0,0,0,0,0,0,0,0,0,0,0,0,0,-0.0283,-0.0282,0,-0.0212,-0.0211,-0.021,-0.0158,-0.0158,-0.0157,-0.0157,-0.0052,-0.005,-0.0047,0,0,0,0,0,0,0,0,0,0,0,0,0,-0.0332,-0.0332,-0.0283,-0.0282,-0.0281,-0.0212,-0.0211,-0.021,-0.0158,-0.0158,-0.0157,-0.0157,-0.0053,-0.005,-0.0047,0,0,0,0,0,0,0,0,0,0,0,0,0,-0.029,-0.0331,-0.0283,-0.0247,-0.0243,-0.0212,-0.0211,-0.0209,-0.0158,-0.0158,-0.0157,-0.0156,-0.0054,-0.005,-0.0047,-0.0036,0,0,-0.0035,-0.0034,0,0,0,0,0,0,0,0,-0.0293,-0.0289,-0.0253,-0.025,-0.0245,-0.0194,-0.019,-0.015,-0.0158,-0.019,-0.0157,-0.0156,-0.0097,-0.009,-0.0077,-0.0031,-0.0026,-0.0035,-0.0033,-0.0031,-0.003,0,0,0,0,0,0,0,-0.0296,-0.0291,-0.0254,-0.0253,-0.0248,-0.0221,-0.0214,-0.0182,-0.0147,-0.0187,-0.0183,-0.0177,-0.0094,-0.0081,-0.0074,-0.0025,-0.0035,-0.0032,-0.003,-0.0028,0.0056,0.0056,0,0,0,0,0,0,-0.0309,-0.0294,-0.0256,-0.0252,-0.0269,-0.0221,-0.0213,-0.021,-0.0147,-0.0138,-0.0177,-0.0174,-0.0088,-0.0079,-0.007,-0.0045,-0.0031,-0.0028,-0.0026,0.0056,0.0056,0.0056,0,0,0,0,0,0,-0.031,-0.0306,-0.0259,-0.0271,-0.0264,-0.0221,-0.0217,-0.0209,-0.0196,-0.014,-0.013,-0.0172,-0.0087,-0.0076,-0.0039,-0.0041,-0.0026,-0.0023,0.0056,0.0056,0.0056,-0.0001,0,0,0,0,0,0,-0.0312,-0.0307,-0.0312,-0.0273,-0.0263,-0.0248,-0.0218,-0.0208,-0.0193,-0.0188,-0.0132,-0.0122,-0.0085,-0.0045,-0.0035,-0.0036,-0.002,0.0056,0.0056,0.0056,0.0001,-0.0003,-0.0006,0,0,0,0,0,-0.0314,-0.0325,-0.0312,-0.0308,-0.027,-0.0248,-0.0242,-0.0208,-0.0193,-0.0193,-0.0149,-0.0124,-0.0037,-0.0042,-0.0031,-0.003,0.0055,0.0056,0.0056,0.0003,-0.0002,-0.0006,0,0,0,0,0,0,-0.035,-0.032,-0.0305,-0.0307,-0.0282,-0.024,-0.0238,-0.0214,-0.0181,-0.0176,-0.0122,-0.0109,-0.0079,-0.0047,-0.0053,-0.0006,0.0013,0.0015,-0.0031,-0.0035,-0.0039,-0.0047,-0.0017,0,0,0,0,0,-0.0361,-0.0362,-0.0326,-0.0329,-0.0319,-0.028,-0.0268,-0.0246,-0.021,-0.0195,-0.0154,-0.0109,-0.0071,-0.0047,-0.0012,0.0014,0.006,0.0022,0.0019,0.0015,0.0016,0.0082,0.0085,0.0056,0.0056,0.0056,0,0,-0.0375,-0.036,-0.0359,-0.0337,-0.0315,-0.0306,-0.0271,-0.0259,-0.0247,-0.0189,-0.0162,-0.0123,-0.0067,-0.0038,-0.0021,-0.0009,0.0047,0.0015,0.0012,0.0015,0.0082,0.0085,0.0088,0.0056,0.0056,0.0056,0,0,-0.041,-0.0392,-0.0406,-0.0387,-0.0363,-0.0333,-0.0333,-0.0294,-0.0272,-0.0245,-0.0197,-0.0156,-0.0104,-0.0058,-0.0029,-0.0029,0.0023,-0.0023,-0.0041,0.0022,0.0025,0.0028,0.0088,0.0097,-0.002,-0.002,-0.0021,0,-0.043,-0.0438,-0.0406,-0.0412,-0.04,-0.0349,-0.0355,-0.0325,-0.0278,-0.0256,-0.0246,-0.0153,-0.0112,-0.0055,-0.0057,-0.0037,0.0006,-0.0033,0.0017,0.0021,0.0026,0.0086,0.0097,-0.0023,-0.0023,-0.0023,-0.0022,0,-0.0475,-0.0474,-0.0481,-0.0467,-0.045,-0.0447,-0.04,-0.0379,-0.0347,-0.0309,-0.0257,-0.0195,-0.0135,-0.0119,-0.0089,-0.0038,-0.0015,0.0001,0.0025,0.0025,0.0089,0.0101,-0.0027,-0.0026,-0.0025,-0.0025,0,0,-0.0536,-0.0516,-0.0518,-0.0515,-0.0477,-0.0468,-0.0445,-0.0404,-0.038,-0.0331,-0.0293,-0.0228,-0.0187,-0.0151,-0.0101,-0.0047,0.0015,-0.0018,-0.0013,0.0037,0.0156,0.0178,0.0194,0.0039,0.004,0.0042,0.0188,0,-0.0579,-0.0605,-0.0575,-0.0581,-0.0585,-0.0526,-0.0505,-0.0459,-0.0409,-0.0358,-0.0282,-0.0229,-0.0199,-0.0168,-0.0111,-0.0013,0.0044,-0.0026,0.0153,0.0158,0.0175,0.0208,0.0164,0.0291,0.02,0.0202,0.0204,0,-0.0636,-0.0641,-0.0665,-0.0632,-0.0627,-0.0617,-0.0565,-0.0538,-0.0449,-0.041,-0.0338,-0.027,-0.0177,-0.0158,0.001,-0.0037,0.005,0.0123,0.0131,0.0181,0.0204,0.0278,0.0317,0.0225,0.0223,0.0221,0.022,0,-0.0704,-0.0698,-0.0719,-0.0711,-0.067,-0.0662,-0.0632,-0.056,-0.0526,-0.0435,-0.0392,-0.0279,-0.0203,-0.009,0.0061,0.0038,0.025,0.0242,0.0348,0.0351,0.0364,0.0365,0.0359,0.0359,0.0359,0.0358,0.0358,0,-0.0763,-0.0775,-0.0753,-0.0764,-0.0774,-0.0722,-0.0706,-0.066,-0.0578,-0.0514,-0.0422,-0.0335,-0.0181,-0.0039,0.0071,0.0258,0.0266,0.0358,0.0396,0.0342,0.034,0.0319,0.0312,0.0364,0.0362,0.0361,0.036,0,-0.0834,-0.0821,-0.0841,-0.0816,-0.081,-0.0819,-0.0763,-0.0736,-0.0654,-0.0565,-0.0533,-0.0359,-0.0166,-0.0007,0.0207,0.0289,0.0449,0.0511,0.0437,0.0463,0.0501,0.049,0.0638,0.064,0.0642,0.0643,0.0644,0,-0.0872,-0.0891,-0.0896,-0.0912,-0.0905,-0.0899,-0.0881,-0.0796,-0.0749,-0.056,-0.0512,-0.0306,-0.0137,0.0171,0.0348,0.0553,0.054,0.0617,0.0562,0.0511,0.0533,0.0518,0.0505,0.0561,0.0562,0.0562,0.0562,0,-0.0937,-0.0941,-0.0963,-0.101,-0.101,-0.0994,-0.0954,-0.0914,-0.0772,-0.0665,-0.0461,-0.0307,0.0006,0.0235,0.0478,0.0578,0.0572,0.0632,0.063,0.0486,0.0448,0.0466,0.0454,0.0566,0.0566,0.0565,0.0565,0.0565,-0.0986,-0.1023,-0.1063,-0.1108,-0.1109,-0.1082,-0.1047,-0.0947,-0.0839,-0.0631,-0.0459,-0.0228,0.0002,0.0329,0.0525,0.0668,0.0664,0.0669,0.0664,0.066,0.0614,0.058,0.0714,0.0714,0.0715,0.0715,0.0716,0,-0.1049,-0.1091,-0.115,-0.1214,-0.1243,-0.1193,-0.1089,-0.1019,-0.0857,-0.0623,-0.041,-0.0186,0.0075,0.0294,0.0543,0.0708,0.0671,0.0706,0.063,0.0626,0.0622,0.0571,0.0662,0.0662,0.0663,0.0663,0,0,-0.1082,-0.1164,-0.1207,-0.1318,-0.1341,-0.1329,-0.1233,-0.1055,-0.0865,-0.0607,-0.0427,-0.0219,0.0066,0.0214,0.0433,0.057,0.0552,0.0565,0.059,0.0474,0.0469,0.0583,0.0497,0,0,0,0,0]}],[{"header":{"parameterUnit":"m.s-1","parameterCategory":2,"la1":30.2991,"la2":30.254,"lo1":-89.0895,"lo2":-89.0444,"dy":0.0017,"dx":0.0017,"nx":28,"ny":28,"refTime":"2024-05-26T09:00:00:Z","depth":"4","parameterNumber":2,"parameterNumberName":"U-component_of_CURRENTS"},"data":[0,0,0,0,0,0,0,0,0,0,0,0,0,0,0,0,0,0,0,0,0,0,0,0,0,0,0,0,0,0,0,0,0,0,0,0,0,0,0,0,0,0,0,0,0,0,0,0,0,0,0,0,0,0,0,0,0,0,-0.1615,-0.1615,0,-0.168,-0.168,-0.1681,-0.1711,-0.1711,-0.1711,-0.1711,-0.1755,-0.1756,-0.1757,0,0,0,0,0,0,0,0,0,0,0,0,0,-0.1532,-0.1533,-0.1614,-0.1615,-0.1616,-0.168,-0.168,-0.1681,-0.1711,-0.1711,-0.1711,-0.1711,-0.1755,-0.1756,-0.1758,0,0,0,0,0,0,0,0,0,0,0,0,0,-0.1578,-0.1533,-0.1614,-0.164,-0.1643,-0.1679,-0.168,-0.1681,-0.1711,-0.1711,-0.1711,-0.1711,-0.1754,-0.1756,-0.1758,-0.1766,0,0,-0.1763,-0.1764,0,0,0,0,0,0,0,0,-0.1575,-0.1581,-0.1635,-0.1638,-0.1642,-0.1688,-0.1667,-0.1709,-0.1711,-0.1684,-0.1711,-0.1711,-0.1732,-0.1735,-0.1746,-0.1768,-0.177,-0.1763,-0.1764,-0.1765,-0.1765,0,0,0,0,0,0,0,-0.1572,-0.1578,-0.1639,-0.1636,-0.164,-0.1654,-0.166,-0.1675,-0.1705,-0.1686,-0.1689,-0.1698,-0.1733,-0.1744,-0.1747,-0.1771,-0.1763,-0.1764,-0.1765,-0.1766,-0.1855,-0.1857,0,0,0,0,0,0,-0.1566,-0.1575,-0.1637,-0.1641,-0.161,-0.1655,-0.1662,-0.1672,-0.1705,-0.1711,-0.1698,-0.1699,-0.1741,-0.1745,-0.1749,-0.1813,-0.1765,-0.1766,-0.1767,-0.1854,-0.1856,-0.1857,0,0,0,0,0,0,-0.1564,-0.1571,-0.1634,-0.1611,-0.162,-0.1656,-0.1668,-0.1674,-0.1709,-0.1715,-0.172,-0.173,-0.1741,-0.1746,-0.1786,-0.1812,-0.1767,-0.1768,-0.1852,-0.1854,-0.1856,-0.1907,0,0,0,0,0,0,-0.1561,-0.157,-0.159,-0.161,-0.1621,-0.1672,-0.1668,-0.1675,-0.1714,-0.1717,-0.1744,-0.1746,-0.1742,-0.1784,-0.1788,-0.1814,-0.177,-0.185,-0.1853,-0.1856,-0.1903,-0.191,-0.1916,0,0,0,0,0,-0.1558,-0.158,-0.159,-0.1598,-0.1642,-0.1673,-0.1681,-0.1705,-0.1715,-0.1737,-0.1757,-0.1747,-0.1803,-0.1787,-0.1791,-0.1818,-0.1849,-0.1852,-0.1855,-0.19,-0.1909,-0.1916,0,0,0,0,0,0,-0.1558,-0.1586,-0.1597,-0.1629,-0.1657,-0.1679,-0.1708,-0.1722,-0.1756,-0.1767,-0.1768,-0.1773,-0.1816,-0.1813,-0.1795,-0.1851,-0.1823,-0.1827,-0.1856,-0.1864,-0.187,-0.1864,-0.1771,0,0,0,0,0,-0.1566,-0.1591,-0.1617,-0.1646,-0.1663,-0.1691,-0.1713,-0.173,-0.1756,-0.1773,-0.1791,-0.1811,-0.1828,-0.1844,-0.1859,-0.1894,-0.1864,-0.1913,-0.1919,-0.1925,-0.1924,-0.1908,-0.1912,-0.1867,-0.1867,-0.1867,0,0,-0.1576,-0.1595,-0.1611,-0.1648,-0.1674,-0.17,-0.1705,-0.1748,-0.1774,-0.1772,-0.1824,-0.1838,-0.1843,-0.188,-0.1899,-0.1884,-0.192,-0.1929,-0.1933,-0.1929,-0.1912,-0.1916,-0.1919,-0.1869,-0.1869,-0.1869,0,0,-0.1593,-0.1625,-0.1647,-0.1671,-0.1714,-0.1731,-0.1749,-0.1788,-0.1815,-0.186,-0.1864,-0.1896,-0.1928,-0.1936,-0.1942,-0.1994,-0.1955,-0.2004,-0.2033,-0.2018,-0.2021,-0.2023,-0.1979,-0.1976,-0.2006,-0.2007,-0.2007,0,-0.1606,-0.1634,-0.166,-0.1683,-0.1712,-0.1746,-0.1776,-0.1805,-0.1854,-0.188,-0.1884,-0.194,-0.195,-0.1983,-0.2003,-0.2008,-0.1982,-0.2002,-0.2025,-0.2027,-0.2028,-0.1981,-0.1978,-0.2009,-0.2009,-0.2009,-0.2008,0,-0.1627,-0.166,-0.1679,-0.1717,-0.175,-0.1788,-0.1825,-0.1869,-0.1905,-0.1928,-0.1985,-0.2,-0.2029,-0.2042,-0.204,-0.2066,-0.2036,-0.2033,-0.2001,-0.2035,-0.1984,-0.198,-0.2013,-0.2012,-0.2012,-0.2011,0,0,-0.1626,-0.1683,-0.1693,-0.1719,-0.1776,-0.1804,-0.1858,-0.1913,-0.1949,-0.1996,-0.2032,-0.2077,-0.2089,-0.2096,-0.2102,-0.2097,-0.2086,-0.2075,-0.2073,-0.2022,-0.203,-0.1893,-0.1875,-0.2086,-0.2086,-0.2087,-0.1984,0,-0.1639,-0.1683,-0.1715,-0.177,-0.1798,-0.1851,-0.1896,-0.1949,-0.1993,-0.2034,-0.2062,-0.2096,-0.2108,-0.2124,-0.2125,-0.2096,-0.208,-0.2112,-0.2011,-0.2007,-0.1875,-0.1868,-0.2087,-0.1981,-0.198,-0.1979,-0.1978,0,-0.1639,-0.1675,-0.1725,-0.1797,-0.1818,-0.186,-0.1942,-0.1986,-0.2046,-0.2078,-0.2117,-0.2129,-0.2146,-0.2141,-0.2107,-0.2127,-0.2085,-0.2055,-0.205,-0.1901,-0.1863,-0.1943,-0.197,-0.1971,-0.1972,-0.1972,-0.1973,0,-0.1605,-0.168,-0.1724,-0.1748,-0.1831,-0.1879,-0.1934,-0.2005,-0.2036,-0.21,-0.2106,-0.2145,-0.2135,-0.2118,-0.2065,-0.2088,-0.1993,-0.2012,-0.1846,-0.1835,-0.1967,-0.1966,-0.1974,-0.1975,-0.1975,-0.1975,-0.1975,0,-0.1586,-0.1626,-0.1718,-0.174,-0.1801,-0.1872,-0.1934,-0.1994,-0.2051,-0.2052,-0.2122,-0.2095,-0.2127,-0.2078,-0.2051,-0.1914,-0.1979,-0.1833,-0.1797,-0.1989,-0.1992,-0.1963,-0.1963,-0.1971,-0.1972,-0.1973,-0.1974,0,-0.152,-0.1586,-0.1638,-0.1744,-0.1779,-0.1822,-0.1916,-0.1937,-0.2015,-0.2008,-0.202,-0.2045,-0.1974,-0.197,-0.191,-0.1854,-0.177,-0.1706,-0.1882,-0.1861,-0.1626,-0.163,-0.1511,-0.1505,-0.15,-0.1496,-0.1493,0,-0.1482,-0.1501,-0.1614,-0.1634,-0.1685,-0.1758,-0.1786,-0.19,-0.1897,-0.1939,-0.1895,-0.1872,-0.1864,-0.1657,-0.1694,-0.1613,-0.1602,-0.1554,-0.1624,-0.16,-0.1578,-0.159,-0.16,-0.1485,-0.1484,-0.1483,-0.1481,0,-0.1401,-0.1453,-0.1491,-0.1518,-0.1564,-0.1597,-0.1645,-0.1642,-0.1725,-0.1816,-0.1714,-0.1672,-0.1576,-0.1536,-0.1474,-0.1431,-0.1592,-0.1503,-0.1515,-0.158,-0.1568,-0.1553,-0.1569,-0.1464,-0.1467,-0.1468,-0.1469,0,-0.1333,-0.1326,-0.1358,-0.1368,-0.1413,-0.1387,-0.146,-0.1439,-0.1465,-0.1541,-0.1494,-0.1486,-0.1532,-0.1435,-0.138,-0.1323,-0.132,-0.1299,-0.1321,-0.134,-0.1336,-0.1299,-0.1062,0,0,0,0,0,-0.1244,-0.1196,-0.119,-0.1186,-0.1221,-0.1235,-0.1314,-0.1385,-0.149,-0.137,-0.1434,-0.1346,-0.1269,-0.1276,-0.1179,-0.1302,-0.1324,-0.1186,-0.1314,-0.1371,-0.1391,-0.1405,0,0,0,0,0,0,-0.1173,-0.1162,-0.1128,-0.101,-0.0975,-0.0983,-0.1037,-0.1125,-0.1074,-0.1196,-0.1154,-0.125,-0.1188,-0.1276,-0.1137,-0.1141,-0.1193,-0.1209,-0.1205,-0.136,-0.1378,-0.1394,-0.1415,0,0,0,0,0]},{"header":{"parameterUnit":"m.s-1","parameterCategory":2,"la1":30.2991,"la2":30.254,"lo1":-89.0895,"lo2":-89.0444,"dy":0.0017,"dx":0.0017,"nx":28,"ny":28,"refTime":"2024-05-26T09:00:00:Z","depth":"4","parameterNumber":3,"parameterNumberName":"V-component_of_CURRENTS"},"data":[0,0,0,0,0,0,0,0,0,0,0,0,0,0,0,0,0,0,0,0,0,0,0,0,0,0,0,0,0,0,0,0,0,0,0,0,0,0,0,0,0,0,0,0,0,0,0,0,0,0,0,0,0,0,0,0,0,0,-0.0202,-0.0201,0,-0.0154,-0.0153,-0.0152,-0.0128,-0.0128,-0.0128,-0.0128,-0.0047,-0.0045,-0.0043,0,0,0,0,0,0,0,0,0,0,0,0,0,-0.0242,-0.0241,-0.0202,-0.0201,-0.02,-0.0154,-0.0153,-0.0152,-0.0128,-0.0128,-0.0128,-0.0128,-0.0048,-0.0045,-0.0043,0,0,0,0,0,0,0,0,0,0,0,0,0,-0.0212,-0.0241,-0.0202,-0.0183,-0.0181,-0.0154,-0.0153,-0.0152,-0.0128,-0.0128,-0.0128,-0.0129,-0.0049,-0.0046,-0.0042,-0.0021,0,0,-0.0032,-0.0031,0,0,0,0,0,0,0,0,-0.0213,-0.021,-0.0187,-0.0185,-0.0182,-0.0148,-0.0137,-0.0107,-0.0128,-0.0148,-0.0128,-0.0129,-0.0078,-0.0072,-0.0063,-0.0017,-0.0013,-0.0032,-0.003,-0.0029,-0.0028,0,0,0,0,0,0,0,-0.0215,-0.0212,-0.0182,-0.0186,-0.0183,-0.0167,-0.0163,-0.0131,-0.0112,-0.0146,-0.0144,-0.014,-0.0077,-0.0066,-0.0061,-0.0012,-0.0032,-0.0029,-0.0027,-0.0026,0.0068,0.0069,0,0,0,0,0,0,-0.0224,-0.0214,-0.0184,-0.0181,-0.0199,-0.0166,-0.0162,-0.0158,-0.0113,-0.0107,-0.014,-0.0139,-0.0072,-0.0065,-0.0058,-0.0026,-0.0029,-0.0025,-0.0024,0.0068,0.0068,0.0069,0,0,0,0,0,0,-0.0225,-0.0222,-0.0185,-0.0197,-0.0191,-0.0166,-0.0162,-0.0157,-0.015,-0.0109,-0.0102,-0.0139,-0.0071,-0.0062,-0.0027,-0.0023,-0.0024,-0.0021,0.0067,0.0068,0.0068,0.0036,0,0,0,0,0,0,-0.0226,-0.0222,-0.0226,-0.0197,-0.0191,-0.0173,-0.0162,-0.0156,-0.0148,-0.0146,-0.0105,-0.0097,-0.0071,-0.0033,-0.0024,-0.0018,-0.0018,0.0066,0.0067,0.0068,0.0036,0.0035,0.0035,0,0,0,0,0,-0.0228,-0.0231,-0.0226,-0.0223,-0.0195,-0.0174,-0.0169,-0.015,-0.0148,-0.0145,-0.0114,-0.0099,-0.0021,-0.0029,-0.002,-0.0013,0.0066,0.0067,0.0068,0.0037,0.0035,0.0035,0,0,0,0,0,0,-0.0249,-0.0228,-0.0222,-0.0219,-0.02,-0.017,-0.0168,-0.0155,-0.0129,-0.013,-0.0091,-0.0081,-0.005,-0.0024,-0.0035,0.0018,0.0025,0.0028,-0.0003,-0.0003,-0.0004,-0.002,-0.0016,0,0,0,0,0,-0.0256,-0.0255,-0.0229,-0.0228,-0.0221,-0.0197,-0.0188,-0.0175,-0.0148,-0.0138,-0.0106,-0.0071,-0.0036,-0.0016,0.0016,0.0047,0.0064,0.0058,0.0057,0.0056,0.0051,0.0085,0.0087,0.0073,0.0073,0.0072,0,0,-0.0264,-0.0254,-0.0253,-0.0233,-0.022,-0.0206,-0.0191,-0.0181,-0.0168,-0.0131,-0.0105,-0.0075,-0.0029,0.0004,0.0021,0.0026,0.0069,0.0058,0.0057,0.0051,0.0087,0.0088,0.0089,0.0073,0.0073,0.0073,0,0,-0.0278,-0.0271,-0.0274,-0.0259,-0.0242,-0.0222,-0.0222,-0.0193,-0.0179,-0.0148,-0.0119,-0.0086,-0.0034,0.0001,0.0026,0.0041,0.0061,0.0051,0.0037,0.0071,0.0072,0.0073,0.0091,0.0094,0.0053,0.0053,0.0053,0,-0.0291,-0.029,-0.0271,-0.0266,-0.0261,-0.0231,-0.023,-0.0204,-0.0166,-0.0158,-0.0145,-0.0072,-0.0033,0.001,0.0017,0.0039,0.0053,0.0035,0.0068,0.007,0.0072,0.009,0.0094,0.0052,0.0052,0.0052,0.0052,0,-0.0302,-0.0302,-0.0303,-0.0287,-0.0275,-0.0273,-0.0236,-0.0222,-0.0203,-0.0177,-0.014,-0.0085,-0.0046,-0.0022,0.0005,0.0038,0.0042,0.0059,0.0065,0.0071,0.009,0.0094,0.005,0.005,0.0051,0.0051,0,0,-0.034,-0.0317,-0.0321,-0.0324,-0.0293,-0.0289,-0.0263,-0.024,-0.0235,-0.0186,-0.0173,-0.0101,-0.0083,-0.0053,-0.0014,0.0023,0.0053,0.0042,0.0045,0.005,0.0113,0.0103,0.0107,0.0072,0.0073,0.0074,0.0119,0,-0.0362,-0.037,-0.0346,-0.0353,-0.0357,-0.0323,-0.0306,-0.0278,-0.0247,-0.0222,-0.0162,-0.013,-0.0089,-0.0075,-0.0031,0.0031,0.0064,0.0038,0.0115,0.0117,0.0101,0.0112,0.0076,0.0122,0.0123,0.0124,0.0124,0,-0.0389,-0.0394,-0.0408,-0.0403,-0.0402,-0.0397,-0.0387,-0.0364,-0.0311,-0.0287,-0.0242,-0.0194,-0.0129,-0.0097,0.0007,-0.0015,0.0042,0.0092,0.0095,0.0099,0.0116,0.012,0.0133,0.0132,0.0132,0.0131,0.013,0,-0.0446,-0.0442,-0.0464,-0.046,-0.0439,-0.0448,-0.0437,-0.0396,-0.0385,-0.0332,-0.0318,-0.0236,-0.0196,-0.0112,-0.0003,-0.0001,0.0107,0.0125,0.0168,0.0167,0.0175,0.0174,0.0191,0.0191,0.0191,0.0191,0.0191,0,-0.0484,-0.0506,-0.0499,-0.0512,-0.0547,-0.0509,-0.0529,-0.0503,-0.0462,-0.0451,-0.0363,-0.0331,-0.0197,-0.0115,-0.0021,0.0084,0.0093,0.0162,0.0181,0.0161,0.0157,0.0178,0.0176,0.0193,0.0192,0.0192,0.0192,0,-0.054,-0.0531,-0.0566,-0.0568,-0.0575,-0.0604,-0.0598,-0.0605,-0.0553,-0.0534,-0.0518,-0.0402,-0.0287,-0.0156,-0.0012,0.0055,0.0159,0.0193,0.015,0.0165,0.0199,0.0195,0.024,0.024,0.024,0.024,0.024,0,-0.0566,-0.0587,-0.0625,-0.0658,-0.0666,-0.0694,-0.0713,-0.0667,-0.0662,-0.0574,-0.0569,-0.0449,-0.0361,-0.0166,-0.0028,0.0141,0.0169,0.0207,0.0217,0.0192,0.0206,0.0201,0.0197,0.024,0.024,0.024,0.0241,0,-0.0621,-0.0641,-0.0671,-0.0741,-0.0781,-0.0817,-0.0831,-0.0825,-0.0759,-0.0707,-0.0601,-0.0473,-0.0341,-0.0171,-0.0038,0.0084,0.0175,0.0208,0.0209,0.0219,0.0193,0.0205,0.0201,0.0241,0.0241,0.0241,0.0241,0,-0.0672,-0.0712,-0.0759,-0.0816,-0.0879,-0.0925,-0.0917,-0.0881,-0.0851,-0.0722,-0.0689,-0.0512,-0.0394,-0.0201,-0.008,0.0042,0.0076,0.0103,0.011,0.0111,0.0066,0.0014,0.002,0,0,0,0,0,-0.0715,-0.0759,-0.0824,-0.0883,-0.0947,-0.0973,-0.0989,-0.0959,-0.0878,-0.0812,-0.0739,-0.0602,-0.0377,-0.0271,-0.0151,-0.0101,0.007,0.0039,0.0097,0.0242,0.0242,0.0211,0,0,0,0,0,0,-0.0745,-0.0813,-0.0835,-0.093,-0.0969,-0.1031,-0.1042,-0.0989,-0.0929,-0.0824,-0.07,-0.0583,-0.0367,-0.0439,-0.0147,-0.0107,-0.0059,0.0164,0.0166,0.0242,0.0242,0.0242,0.021,0,0,0,0,0]}]]